• Em Portugal
  • Lista de países
  • Para 7 dias
  • Temperatura da água
  • Mapas de satélite
  • Mapa do tempo
  • Widgets de tempo
  • user-avatar
    Iniciar Sessão

    Previsão horária em Myitkyina

    Hoje, 15 Dezembro, Sexta-feira

    Tempo Temperatura Precipitação Vento Pressão Humidade
    00:00 +18°C° 0 mm 1 m/s 744 mmHg 70%
    01:00 +16°C° 0 mm 1 m/s 743 mmHg 71%
    02:00 +16°C° 0 mm 1 m/s 743 mmHg 71%
    03:00 +16°C° 0 mm 1 m/s 743 mmHg 71%
    04:00 +15°C° 0 mm 1 m/s 744 mmHg 71%
    05:00 +15°C° 0 mm 1 m/s 744 mmHg 71%
    06:00 +15°C° 0 mm 0 m/s 744 mmHg 67%
    07:00 +17°C° 0 mm 0 m/s 744 mmHg 59%
    08:00 +20°C° 0 mm 0 m/s 744 mmHg 51%
    09:00 +22°C° 0 mm 0 m/s 745 mmHg 43%
    10:00 +24°C° 0 mm 0 m/s 744 mmHg 40%
    11:00 +26°C° 0 mm 0 m/s 744 mmHg 38%
    12:00 +28°C° 0 mm 0 m/s 743 mmHg 35%
    13:00 +27°C° 0 mm 0 m/s 743 mmHg 36%
    14:00 +27°C° 0 mm 0 m/s 743 mmHg 38%
    15:00 +26°C° 0 mm 0 m/s 742 mmHg 40%
    16:00 +24°C° 0 mm 0 m/s 743 mmHg 48%
    17:00 +21°C° 0 mm 0 m/s 743 mmHg 55%
    18:00 +18°C° 0 mm 0 m/s 743 mmHg 63%
    19:00 +18°C° 0 mm 0 m/s 744 mmHg 64%
    20:00 +19°C° 0 mm 1 m/s 744 mmHg 64%
    21:00 +18°C° 0 mm 1 m/s 745 mmHg 64%
    22:00 +18°C° 0 mm 1 m/s 745 mmHg 64%
    23:00 +18°C° 0 mm 1 m/s 745 mmHg 63%

    Amanhã, 16 Dezembro, Sábado

    Tempo Temperatura Precipitação Vento Pressão Humidade
    00:00 +16°C° 0 mm 1 m/s 745 mmHg 63%
    01:00 +16°C° 0 mm 1 m/s 745 mmHg 63%
    02:00 +16°C° 0 mm 1 m/s 745 mmHg 63%
    03:00 +15°C° 0 mm 1 m/s 745 mmHg 62%
    04:00 +15°C° 0 mm 1 m/s 745 mmHg 62%
    05:00 +15°C° 0 mm 1 m/s 745 mmHg 62%
    06:00 +14°C° 0 mm 1 m/s 746 mmHg 62%
    07:00 +18°C° 0 mm 1 m/s 746 mmHg 54%
    08:00 +19°C° 0 mm 0 m/s 746 mmHg 46%
    09:00 +22°C° 0 mm 0 m/s 747 mmHg 39%
    10:00 +24°C° 0 mm 0 m/s 746 mmHg 35%
    11:00 +26°C° 0 mm 0 m/s 745 mmHg 32%
    12:00 +28°C° 0 mm 0 m/s 745 mmHg 29%
    13:00 +27°C° 0 mm 0 m/s 744 mmHg 31%
    14:00 +27°C° 0 mm 0 m/s 744 mmHg 34%
    15:00 +27°C° 0 mm 0 m/s 743 mmHg 36%
    16:00 +24°C° 0 mm 0 m/s 744 mmHg 43%
    17:00 +21°C° 0 mm 0 m/s 744 mmHg 51%
    18:00 +18°C° 0 mm 0 m/s 745 mmHg 58%
    19:00 +17°C° 0 mm 0 m/s 745 mmHg 60%
    20:00 +19°C° 0 mm 1 m/s 746 mmHg 61%
    21:00 +18°C° 0 mm 1 m/s 746 mmHg 63%
    22:00 +16°C° 0 mm 1 m/s 746 mmHg 64%
    23:00 +16°C° 0 mm 1 m/s 746 mmHg 65%

    Depois de amanhã, 17 Dezembro, Domingo

    Tempo Temperatura Precipitação Vento Pressão Humidade
    00:00 +16°C° 0 mm 1 m/s 747 mmHg 66%
    01:00 +15°C° 0 mm 1 m/s 746 mmHg 66%
    02:00 +15°C° 0 mm 1 m/s 746 mmHg 66%
    03:00 +15°C° 0 mm 1 m/s 746 mmHg 66%
    04:00 +15°C° 0 mm 1 m/s 746 mmHg 65%
    05:00 +14°C° 0 mm 1 m/s 747 mmHg 64%
    06:00 +14°C° 0 mm 1 m/s 747 mmHg 63%
    07:00 +18°C° 0 mm 1 m/s 747 mmHg 55%
    08:00 +19°C° 0 mm 0 m/s 748 mmHg 46%
    09:00 +22°C° 0 mm 0 m/s 748 mmHg 38%
    10:00 +24°C° 0 mm 0 m/s 748 mmHg 33%
    11:00 +26°C° 0 mm 0 m/s 747 mmHg 29%
    12:00 +28°C° 0 mm 0 m/s 746 mmHg 24%
    13:00 +27°C° 0 mm 0 m/s 745 mmHg 27%
    14:00 +27°C° 0 mm 0 m/s 745 mmHg 29%
    15:00 +26°C° 0 mm 0 m/s 744 mmHg 32%
    16:00 +23°C° 0 mm 0 m/s 745 mmHg 37%
    17:00 +20°C° 0 mm 0 m/s 745 mmHg 43%
    18:00 +18°C° 0 mm 0 m/s 745 mmHg 49%
    19:00 +19°C° 0 mm 1 m/s 746 mmHg 49%
    20:00 +18°C° 0 mm 1 m/s 746 mmHg 49%
    21:00 +18°C° 0 mm 1 m/s 747 mmHg 49%
    22:00 +16°C° 0 mm 1 m/s 747 mmHg 49%
    23:00 +16°C° 0 mm 1 m/s 746 mmHg 49%

    18 Dezembro, Segunda-feira

    Tempo Temperatura Precipitação Vento Pressão Humidade
    00:00 +15°C° 0 mm 1 m/s 746 mmHg 50%
    01:00 +15°C° 0 mm 1 m/s 746 mmHg 50%
    02:00 +15°C° 0 mm 1 m/s 746 mmHg 50%
    03:00 +14°C° 0 mm 1 m/s 746 mmHg 50%
    04:00 +14°C° 0 mm 1 m/s 746 mmHg 49%
    05:00 +14°C° 0 mm 1 m/s 746 mmHg 49%
    06:00 +14°C° 0 mm 1 m/s 747 mmHg 48%
    07:00 +16°C° 0 mm 0 m/s 747 mmHg 43%
    08:00 +18°C° 0 mm 0 m/s 747 mmHg 37%
    09:00 +21°C° 0 mm 0 m/s 748 mmHg 31%
    10:00 +23°C° 0 mm 0 m/s 747 mmHg 29%
    11:00 +25°C° 0 mm 0 m/s 746 mmHg 26%
    12:00 +27°C° 0 mm 0 m/s 746 mmHg 24%
    13:00 +26°C° 0 mm 0 m/s 745 mmHg 26%
    14:00 +26°C° 0 mm 0 m/s 745 mmHg 29%
    15:00 +26°C° 0 mm 0 m/s 744 mmHg 31%
    16:00 +23°C° 0 mm 0 m/s 745 mmHg 38%
    17:00 +20°C° 0 mm 0 m/s 745 mmHg 44%
    18:00 +17°C° 0 mm 0 m/s 745 mmHg 51%
    19:00 +16°C° 0 mm 0 m/s 746 mmHg 51%
    20:00 +18°C° 0 mm 1 m/s 746 mmHg 51%
    21:00 +16°C° 0 mm 1 m/s 747 mmHg 51%
    22:00 +16°C° 0 mm 1 m/s 747 mmHg 51%
    23:00 +15°C° 0 mm 1 m/s 747 mmHg 51%

    19 Dezembro, Terça-feira

    Tempo Temperatura Precipitação Vento Pressão Humidade
    00:00 +15°C° 0 mm 1 m/s 746 mmHg 51%
    01:00 +15°C° 0 mm 1 m/s 746 mmHg 51%
    02:00 +14°C° 0 mm 1 m/s 746 mmHg 51%
    03:00 +14°C° 0 mm 1 m/s 746 mmHg 51%
    04:00 +14°C° 0 mm 1 m/s 746 mmHg 51%
    05:00 +14°C° 0 mm 1 m/s 747 mmHg 51%
    06:00 +13°C° 0 mm 1 m/s 747 mmHg 51%
    07:00 +16°C° 0 mm 1 m/s 747 mmHg 45%
    08:00 +18°C° 0 mm 0 m/s 748 mmHg 39%
    09:00 +21°C° 0 mm 0 m/s 748 mmHg 34%
    10:00 +23°C° 0 mm 0 m/s 747 mmHg 30%
    11:00 +25°C° 0 mm 0 m/s 746 mmHg 27%
    12:00 +27°C° 0 mm 0 m/s 746 mmHg 24%
    13:00 +27°C° 0 mm 0 m/s 745 mmHg 26%
    14:00 +26°C° 0 mm 0 m/s 745 mmHg 29%
    15:00 +26°C° 0 mm 0 m/s 744 mmHg 31%
    16:00 +23°C° 0 mm 0 m/s 744 mmHg 37%
    17:00 +20°C° 0 mm 0 m/s 745 mmHg 44%
    18:00 +17°C° 0 mm 0 m/s 745 mmHg 50%
    19:00 +18°C° 0 mm 1 m/s 746 mmHg 51%
    20:00 +18°C° 0 mm 1 m/s 746 mmHg 52%
    21:00 +16°C° 0 mm 1 m/s 747 mmHg 53%
    22:00 +16°C° 0 mm 1 m/s 746 mmHg 53%
    23:00 +15°C° 0 mm 1 m/s 746 mmHg 53%

    20 Dezembro, Quarta-feira

    Tempo Temperatura Precipitação Vento Pressão Humidade
    00:00 +15°C° 0 mm 1 m/s 746 mmHg 54%
    01:00 +15°C° 0 mm 1 m/s 746 mmHg 54%
    02:00 +14°C° 0 mm 1 m/s 746 mmHg 54%
    03:00 +14°C° 0 mm 1 m/s 746 mmHg 55%
    04:00 +14°C° 0 mm 1 m/s 746 mmHg 55%
    05:00 +14°C° 0 mm 1 m/s 747 mmHg 56%
    06:00 +14°C° 0 mm 1 m/s 747 mmHg 56%
    07:00 +16°C° 0 mm 1 m/s 747 mmHg 50%
    08:00 +20°C° 0 mm 1 m/s 748 mmHg 43%
    09:00 +21°C° 0 mm 0 m/s 748 mmHg 37%
    10:00 +23°C° 0 mm 0 m/s 748 mmHg 34%
    11:00 +27°C° 0 mm 1 m/s 747 mmHg 30%
    12:00 +29°C° 0 mm 1 m/s 746 mmHg 27%
    13:00 +27°C° 0 mm 0 m/s 746 mmHg 29%
    14:00 +27°C° 0 mm 0 m/s 745 mmHg 32%
    15:00 +26°C° 0 mm 0 m/s 745 mmHg 35%
    16:00 +23°C° 0 mm 0 m/s 745 mmHg 41%
    17:00 +23°C° 0 mm 1 m/s 745 mmHg 48%
    18:00 +20°C° 0 mm 1 m/s 746 mmHg 55%
    19:00 +19°C° 0 mm 1 m/s 746 mmHg 56%
    20:00 +18°C° 0 mm 1 m/s 746 mmHg 57%
    21:00 +18°C° 0 mm 1 m/s 746 mmHg 59%
    22:00 +16°C° 0 mm 1 m/s 746 mmHg 59%
    23:00 +16°C° 0 mm 1 m/s 746 mmHg 60%
    Mostrar mais